| time (UTC) | temp C | wind direction | speed KPH | gust KPH | rain 1hr cm | rain 24hr cm | rain mn cm | humidity % | barometer mb |
| 20260902144012 | 16 | 248 | 9.7 | 19.3 | 0.00 | 0.28 | 0.18 | 91 | 1014.6 |
| 20260902143513 | 16 | 232 | 12.9 | 19.3 | 0.00 | 0.28 | 0.18 | 91 | 1014.5 |
| 20260902143025 | 16 | 234 | 11.3 | 17.7 | 0.05 | 0.28 | 0.18 | 91 | 1014.5 |
| 20260902142514 | 16 | 240 | 12.9 | 17.7 | 0.05 | 0.28 | 0.18 | 90 | 1014.6 |
| 20260902142002 | 16 | 247 | 8.0 | 16.1 | 0.10 | 0.28 | 0.18 | 91 | 1014.6 |
| 20260902141505 | 15 | 257 | 8.0 | 16.1 | 0.10 | 0.28 | 0.18 | 90 | 1014.5 |
| 20260902141008 | 15 | 252 | 8.0 | 16.1 | 0.10 | 0.28 | 0.18 | 91 | 1014.6 |
| 20260902140503 | 15 | 271 | 8.0 | 16.1 | 0.10 | 0.28 | 0.18 | 90 | 1014.6 |
| 20260902140010 | 15 | 263 | 8.0 | 17.7 | 0.10 | 0.28 | 0.18 | 90 | 1014.6 |
| 20260902135512 | 15 | 271 | 6.4 | 17.7 | 0.10 | 0.28 | 0.18 | 90 | 1014.6 |
| 20260902135014 | 15 | 239 | 8.0 | 19.3 | 0.10 | 0.28 | 0.18 | 90 | 1014.7 |
| 20260902134516 | 15 | 248 | 9.7 | 19.3 | 0.10 | 0.28 | 0.18 | 89 | 1014.7 |
| 20260902134013 | 15 | 283 | 12.9 | 20.9 | 0.08 | 0.25 | 0.15 | 88 | 1014.8 |
| 20260902133512 | 15 | 262 | 9.7 | 27.4 | 0.08 | 0.25 | 0.15 | 87 | 1014.8 |
| 20260902133029 | 15 | 272 | 9.7 | 33.8 | 0.05 | 0.20 | 0.10 | 86 | 1014.8 |
| 20260902132517 | 16 | 277 | 16.1 | 48.3 | 0.05 | 0.20 | 0.10 | 82 | 1014.9 |
| 20260902132005 | 17 | 263 | 27.4 | 48.3 | 0.00 | 0.15 | 0.05 | 77 | 1014.9 |
| 20260902131509 | 18 | 242 | 14.5 | 37.0 | 0.00 | 0.15 | 0.05 | 76 | 1014.5 |
| 20260902131008 | 18 | 236 | 17.7 | 29.0 | 0.00 | 0.15 | 0.05 | 77 | 1014.6 |
| 20260902130507 | 18 | 239 | 19.3 | 33.8 | 0.00 | 0.15 | 0.05 | 74 | 1014.5 |
| 20260902130012 | 18 | 251 | 20.9 | 33.8 | 0.00 | 0.15 | 0.05 | 75 | 1014.6 |
| 20260902125511 | 18 | 251 | 24.1 | 32.2 | 0.00 | 0.15 | 0.05 | 73 | 1014.6 |
| 20260902125012 | 19 | 234 | 19.3 | 35.4 | 0.00 | 0.15 | 0.05 | 75 | 1014.5 |
| 20260902124523 | 20 | 246 | 22.5 | 41.8 | 0.00 | 0.15 | 0.05 | 71 | 1014.5 |
| 20260902124020 | 20 | 292 | 19.3 | 41.8 | 0.00 | 0.15 | 0.05 | 74 | 1014.5 |
| 20260902123515 | 20 | 232 | 17.7 | 27.4 | 0.00 | 0.15 | 0.05 | 72 | 1014.5 |
| 20260902123028 | 20 | 232 | 19.3 | 30.6 | 0.00 | 0.15 | 0.05 | 71 | 1014.5 |
| 20260902122503 | 20 | 249 | 16.1 | 30.6 | 0.00 | 0.15 | 0.05 | 71 | 1014.5 |
| 20260902122007 | 19 | 209 | 14.5 | 27.4 | 0.00 | 0.15 | 0.05 | 74 | 1014.5 |
| 20260902121506 | 19 | 242 | 12.9 | 29.0 | 0.00 | 0.15 | 0.05 | 75 | 1014.6 |
| 20260902121008 | 19 | 231 | 17.7 | 29.0 | 0.00 | 0.15 | 0.05 | 73 | 1014.6 |
| 20260902120509 | 19 | 250 | 11.3 | 30.6 | 0.00 | 0.15 | 0.05 | 75 | 1014.6 |
| 20260902120018 | 19 | 250 | 20.9 | 30.6 | 0.00 | 0.15 | 0.05 | 74 | 1014.6 |
| 20260902115510 | 20 | 234 | 12.9 | 25.7 | 0.00 | 0.15 | 0.05 | 77 | 1014.6 |
| 20260902115012 | 19 | 257 | 12.9 | 33.8 | 0.00 | 0.15 | 0.05 | 74 | 1014.7 |
| 20260902114526 | 18 | 248 | 20.9 | 38.6 | 0.00 | 0.15 | 0.05 | 73 | 1014.7 |
| 20260902114014 | 19 | 263 | 16.1 | 38.6 | 0.00 | 0.15 | 0.05 | 73 | 1014.7 |
| 20260902113513 | 19 | 242 | 17.7 | 33.8 | 0.00 | 0.15 | 0.05 | 74 | 1014.8 |
| 20260902113028 | 19 | 248 | 19.3 | 27.4 | 0.00 | 0.15 | 0.05 | 76 | 1014.8 |
| 20260902112503 | 20 | 246 | 12.9 | 25.7 | 0.00 | 0.15 | 0.05 | 74 | 1014.9 |
| 20260902112008 | 20 | 265 | 16.1 | 25.7 | 0.00 | 0.15 | 0.05 | 71 | 1014.9 |
| 20260902111511 | 20 | 269 | 11.3 | 27.4 | 0.00 | 0.15 | 0.05 | 72 | 1015.0 |
| 20260902111010 | 20 | 244 | 17.7 | 33.8 | 0.00 | 0.15 | 0.05 | 71 | 1014.9 |
| 20260902110511 | 20 | 242 | 20.9 | 32.2 | 0.00 | 0.15 | 0.05 | 72 | 1015.0 |
| 20260902110035 | 20 | 236 | 16.1 | 25.7 | 0.00 | 0.15 | 0.05 | 71 | 1015.0 |
| 20260902105515 | 19 | 248 | 14.5 | 32.2 | 0.00 | 0.15 | 0.05 | 73 | 1015.0 |
| 20260902105016 | 19 | 244 | 19.3 | 32.2 | 0.00 | 0.15 | 0.05 | 73 | 1015.0 |
| 20260902104548 | 20 | 246 | 9.7 | 24.1 | 0.00 | 0.15 | 0.05 | 75 | 1015.1 |
| 20260902104017 | 20 | 244 | 12.9 | 25.7 | 0.00 | 0.15 | 0.05 | 74 | 1015.2 |
| 20260902103516 | 20 | 253 | 19.3 | 27.4 | 0.00 | 0.15 | 0.05 | 74 | 1015.1 |
| 20260902103012 | 18 | 259 | 16.1 | 33.8 | 0.00 | 0.15 | 0.05 | 74 | 1015.1 |
| 20260902102506 | 19 | 245 | 14.5 | 33.8 | 0.00 | 0.15 | 0.05 | 73 | 1015.1 |
| 20260902102008 | 20 | 233 | 14.5 | 22.5 | 0.00 | 0.15 | 0.05 | 74 | 1015.1 |
| 20260902101511 | 18 | 282 | 11.3 | 27.4 | 0.00 | 0.15 | 0.05 | 78 | 1015.1 |
| 20260902101012 | 18 | 238 | 12.9 | 27.4 | 0.00 | 0.15 | 0.05 | 77 | 1015.1 |
| 20260902100512 | 18 | 252 | 14.5 | 32.2 | 0.00 | 0.15 | 0.05 | 77 | 1015.1 |
| 20260902100023 | 19 | 240 | 20.9 | 32.2 | 0.00 | 0.15 | 0.05 | 72 | 1015.1 |
| 20260902095513 | 19 | 220 | 12.9 | 29.0 | 0.00 | 0.15 | 0.05 | 76 | 1015.1 |
| 20260902095015 | 18 | 241 | 12.9 | 32.2 | 0.00 | 0.15 | 0.05 | 80 | 1015.2 |
| 20260902094529 | 18 | 238 | 17.7 | 32.2 | 0.00 | 0.15 | 0.05 | 77 | 1015.1 |
| 20260902094017 | 18 | 261 | 17.7 | 25.7 | 0.00 | 0.15 | 0.05 | 77 | 1015.0 |
| 20260902093518 | 18 | 259 | 12.9 | 22.5 | 0.00 | 0.15 | 0.05 | 78 | 1015.1 |
| 20260902093010 | 18 | 250 | 14.5 | 30.6 | 0.00 | 0.15 | 0.05 | 79 | 1015.2 |
| 20260902092506 | 18 | 263 | 17.7 | 30.6 | 0.00 | 0.15 | 0.05 | 80 | 1015.2 |
| 20260902092011 | 18 | 253 | 16.1 | 29.0 | 0.00 | 0.15 | 0.05 | 80 | 1015.2 |
| 20260902091516 | 17 | 264 | 12.9 | 29.0 | 0.00 | 0.15 | 0.05 | 81 | 1015.2 |
| 20260902091013 | 17 | 221 | 14.5 | 27.4 | 0.00 | 0.15 | 0.05 | 81 | 1015.2 |
| 20260902090514 | 17 | 239 | 17.7 | 32.2 | 0.00 | 0.15 | 0.05 | 80 | 1015.2 |
| 20260902090029 | 18 | 240 | 20.9 | 32.2 | 0.00 | 0.15 | 0.05 | 79 | 1015.2 |
| 20260902085515 | 18 | 241 | 12.9 | 30.6 | 0.00 | 0.15 | 0.05 | 84 | 1015.2 |
| 20260902085015 | 17 | 243 | 20.9 | 30.6 | 0.00 | 0.15 | 0.05 | 84 | 1015.2 |
| 20260902084538 | 17 | 219 | 11.3 | 19.3 | 0.00 | 0.15 | 0.05 | 84 | 1015.2 |
| 20260902084017 | 17 | 198 | 12.9 | 19.3 | 0.00 | 0.15 | 0.05 | 87 | 1015.2 |
| 20260902083511 | 17 | 237 | 9.7 | 17.7 | 0.00 | 0.15 | 0.05 | 87 | 1015.3 |
| 20260902083012 | 16 | 250 | 9.7 | 20.9 | 0.00 | 0.15 | 0.05 | 87 | 1015.3 |
| 20260902082508 | 16 | 249 | 8.0 | 20.9 | 0.00 | 0.15 | 0.05 | 88 | 1015.3 |
| 20260902082011 | 16 | 250 | 9.7 | 17.7 | 0.00 | 0.15 | 0.05 | 88 | 1015.3 |
| 20260902081520 | 16 | 233 | 11.3 | 17.7 | 0.00 | 0.15 | 0.05 | 87 | 1015.3 |
| 20260902081011 | 16 | 274 | 6.4 | 20.9 | 0.00 | 0.15 | 0.05 | 88 | 1015.3 |
| 20260902080516 | 16 | 254 | 12.9 | 20.9 | 0.00 | 0.15 | 0.05 | 88 | 1015.3 |
| 20260902080026 | 16 | 227 | 9.7 | 19.3 | 0.00 | 0.15 | 0.05 | 88 | 1015.2 |
| 20260902075513 | 16 | 259 | 9.7 | 19.3 | 0.00 | 0.15 | 0.05 | 88 | 1015.1 |
| 20260902075019 | 16 | 219 | 11.3 | 22.5 | 0.00 | 0.15 | 0.05 | 88 | 1015.1 |
| 20260902074528 | 16 | 238 | 11.3 | 22.5 | 0.00 | 0.15 | 0.05 | 89 | 1015.1 |
| 20260902074017 | 16 | 255 | 12.9 | 20.9 | 0.00 | 0.15 | 0.05 | 89 | 1015.1 |
| 20260902073507 | 16 | 172 | 8.0 | 17.7 | 0.00 | 0.15 | 0.05 | 89 | 1015.1 |
| 20260902073014 | 16 | 237 | 8.0 | 17.7 | 0.00 | 0.15 | 0.05 | 89 | 1015.0 |
| 20260902072510 | 16 | 252 | 8.0 | 16.1 | 0.00 | 0.15 | 0.05 | 90 | 1015.0 |
| 20260902072013 | 16 | 190 | 8.0 | 20.9 | 0.00 | 0.15 | 0.05 | 90 | 1014.9 |
| 20260902071521 | 16 | 255 | 6.4 | 19.3 | 0.00 | 0.15 | 0.05 | 90 | 1015.0 |
| 20260902071014 | 15 | 240 | 8.0 | 17.7 | 0.00 | 0.15 | 0.05 | 91 | 1015.0 |
| 20260902070514 | 15 | 205 | 8.0 | 17.7 | 0.00 | 0.15 | 0.05 | 92 | 1014.9 |
| 20260902070030 | 15 | 195 | 9.7 | 19.3 | 0.00 | 0.15 | 0.05 | 92 | 1015.0 |
| 20260902065516 | 15 | 206 | 6.4 | 19.3 | 0.00 | 0.15 | 0.05 | 92 | 1015.0 |
| 20260902065022 | 15 | 252 | 8.0 | 17.7 | 0.00 | 0.15 | 0.05 | 92 | 1015.0 |
| 20260902064532 | 15 | 249 | 9.7 | 17.7 | 0.00 | 0.15 | 0.05 | 92 | 1014.9 |
| 20260902064007 | 15 | 232 | 9.7 | 19.3 | 0.00 | 0.15 | 0.05 | 92 | 1014.9 |
| 20260902063510 | 14 | 200 | 6.4 | 19.3 | 0.00 | 0.15 | 0.05 | 92 | 1014.9 |
| 20260902063040 | 14 | 242 | 8.0 | 16.1 | 0.00 | 0.15 | 0.05 | 92 | 1014.9 |
| 20260902062512 | 14 | 249 | 8.0 | 16.1 | 0.00 | 0.15 | 0.05 | 92 | 1014.9 |
| 20260902062012 | 14 | 226 | 9.7 | 16.1 | 0.00 | 0.15 | 0.05 | 93 | 1014.9 |
| 20260902061549 | 14 | 219 | 8.0 | 16.1 | 0.00 | 0.15 | 0.05 | 92 | 1014.8 |
| 20260902061018 | 14 | 251 | 6.4 | 17.7 | 0.00 | 0.15 | 0.05 | 93 | 1014.8 |
| 20260902060515 | 14 | 252 | 8.0 | 17.7 | 0.00 | 0.15 | 0.05 | 93 | 1014.9 |
| 20260902060039 | 13 | 252 | 6.4 | 17.7 | 0.00 | 0.15 | 0.05 | 93 | 1014.8 |
| 20260902055518 | 13 | 220 | 8.0 | 17.7 | 0.00 | 0.15 | 0.05 | 93 | 1014.8 |
| 20260902055020 | 13 | 235 | 6.4 | 16.1 | 0.00 | 0.15 | 0.05 | 93 | 1014.8 |
| 20260902054535 | 13 | 223 | 6.4 | 16.1 | 0.00 | 0.15 | 0.05 | 93 | 1014.8 |
| 20260902054010 | 13 | 225 | 8.0 | 17.7 | 0.00 | 0.15 | 0.05 | 93 | 1014.8 |
| 20260902053512 | 13 | 250 | 9.7 | 17.7 | 0.00 | 0.15 | 0.05 | 93 | 1014.9 |
| 20260902053022 | 13 | 253 | 6.4 | 16.1 | 0.00 | 0.15 | 0.05 | 93 | 1014.8 |
| 20260902052516 | 13 | 256 | 6.4 | 14.5 | 0.00 | 0.15 | 0.05 | 93 | 1014.8 |
| 20260902052012 | 13 | 190 | 4.8 | 14.5 | 0.00 | 0.15 | 0.05 | 93 | 1014.8 |
| 20260902051531 | 13 | 247 | 6.4 | 14.5 | 0.00 | 0.15 | 0.05 | 93 | 1014.8 |
| 20260902051016 | 13 | 256 | 4.8 | 14.5 | 0.00 | 0.15 | 0.05 | 93 | 1014.8 |
| 20260902050516 | 13 | 211 | 6.4 | 12.9 | 0.00 | 0.15 | 0.05 | 93 | 1014.8 |
| 20260902050033 | 13 | 236 | 6.4 | 11.3 | 0.00 | 0.15 | 0.05 | 93 | 1014.8 |
| 20260902045518 | 13 | 226 | 4.8 | 12.9 | 0.00 | 0.15 | 0.05 | 93 | 1014.8 |
| 20260902045019 | 13 | 227 | 4.8 | 16.1 | 0.00 | 0.15 | 0.05 | 93 | 1014.8 |
| 20260902044559 | 13 | 263 | 6.4 | 16.1 | 0.00 | 0.15 | 0.05 | 93 | 1014.8 |
| 20260902044013 | 13 | 211 | 6.4 | 14.5 | 0.00 | 0.15 | 0.05 | 93 | 1014.9 |
| 20260902043513 | 13 | 198 | 8.0 | 14.5 | 0.00 | 0.15 | 0.05 | 93 | 1014.9 |
| 20260902043025 | 13 | 238 | 4.8 | 11.3 | 0.00 | 0.15 | 0.05 | 93 | 1014.9 |
| 20260902042504 | 12 | 231 | 6.4 | 9.7 | 0.00 | 0.15 | 0.05 | 94 | 1014.9 |
| 20260902042003 | 12 | 205 | 4.8 | 9.7 | 0.00 | 0.15 | 0.05 | 94 | 1014.9 |
| 20260902041505 | 12 | 223 | 4.8 | 9.7 | 0.00 | 0.15 | 0.05 | 94 | 1014.8 |
| 20260902041004 | 12 | 215 | 4.8 | 11.3 | 0.00 | 0.15 | 0.05 | 94 | 1014.9 |
| 20260902040506 | 12 | 230 | 6.4 | 11.3 | 0.00 | 0.15 | 0.05 | 94 | 1014.9 |
| 20260902040013 | 12 | 215 | 6.4 | 12.9 | 0.00 | 0.15 | 0.05 | 94 | 1014.9 |
| 20260902035507 | 12 | 248 | 6.4 | 14.5 | 0.00 | 0.15 | 0.05 | 94 | 1014.9 |
| 20260902035010 | 12 | 235 | 6.4 | 14.5 | 0.00 | 0.15 | 0.05 | 94 | 1015.0 |
| 20260902034520 | 12 | 242 | 8.0 | 14.5 | 0.00 | 0.15 | 0.05 | 94 | 1015.0 |
| 20260902034012 | 12 | 244 | 8.0 | 12.9 | 0.00 | 0.15 | 0.05 | 93 | 1015.0 |
| 20260902033512 | 12 | 265 | 6.4 | 11.3 | 0.00 | 0.15 | 0.05 | 93 | 1015.0 |
| 20260902033004 | 12 | 212 | 4.8 | 11.3 | 0.00 | 0.15 | 0.05 | 93 | 1015.0 |
| 20260902032506 | 11 | 241 | 4.8 | 9.7 | 0.00 | 0.15 | 0.05 | 93 | 1015.0 |
| 20260902032004 | 11 | 226 | 4.8 | 11.3 | 0.00 | 0.15 | 0.05 | 93 | 1015.0 |
| 20260902031522 | 11 | 217 | 6.4 | 11.3 | 0.00 | 0.15 | 0.05 | 93 | 1015.0 |
| 20260902031005 | 11 | 240 | 6.4 | 8.0 | 0.00 | 0.15 | 0.05 | 93 | 1015.1 |
| 20260902030512 | 11 | 242 | 4.8 | 6.4 | 0.00 | 0.15 | 0.05 | 93 | 1015.1 |
| 20260902030016 | 11 | 252 | 3.2 | 4.8 | 0.00 | 0.15 | 0.05 | 93 | 1015.1 |
| 20260902025511 | 11 | 219 | 1.6 | 6.4 | 0.00 | 0.15 | 0.05 | 93 | 1015.1 |
| 20260902025012 | 11 | 240 | 3.2 | 6.4 | 0.00 | 0.15 | 0.05 | 93 | 1015.0 |
| 20260902024523 | 11 | 256 | 3.2 | 6.4 | 0.00 | 0.15 | 0.05 | 93 | 1015.1 |
| 20260902024016 | 11 | 251 | 3.2 | 4.8 | 0.00 | 0.15 | 0.05 | 93 | 1015.1 |
| 20260902023516 | 11 | 227 | 1.6 | 8.0 | 0.00 | 0.15 | 0.05 | 93 | 1015.0 |
| 20260902023013 | 11 | 239 | 1.6 | 11.3 | 0.00 | 0.15 | 0.05 | 93 | 1015.0 |
| 20260902022504 | 12 | 240 | 6.4 | 11.3 | 0.00 | 0.15 | 0.05 | 93 | 1015.0 |
| 20260902022006 | 12 | 244 | 6.4 | 11.3 | 0.00 | 0.15 | 0.05 | 93 | 1015.0 |
| 20260902021509 | 12 | 252 | 8.0 | 11.3 | 0.00 | 0.15 | 0.05 | 93 | 1015.0 |
| 20260902021010 | 12 | 261 | 6.4 | 11.3 | 0.00 | 0.15 | 0.05 | 93 | 1015.0 |
| 20260902020509 | 12 | 257 | 8.0 | 11.3 | 0.00 | 0.15 | 0.05 | 93 | 1015.0 |
| 20260902020022 | 12 | 246 | 6.4 | 12.9 | 0.00 | 0.15 | 0.05 | 93 | 1015.0 |
| 20260902015510 | 11 | 252 | 8.0 | 12.9 | 0.00 | 0.15 | 0.05 | 93 | 1015.0 |
| 20260902015014 | 11 | 262 | 6.4 | 11.3 | 0.00 | 0.15 | 0.05 | 93 | 1015.0 |
| 20260902014526 | 11 | 248 | 6.4 | 11.3 | 0.00 | 0.15 | 0.05 | 93 | 1015.0 |
| 20260902014015 | 11 | 257 | 6.4 | 9.7 | 0.00 | 0.15 | 0.05 | 93 | 1015.0 |
| 20260902013515 | 11 | 254 | 4.8 | 8.0 | 0.00 | 0.15 | 0.05 | 93 | 1015.0 |
| 20260902013004 | 11 | 251 | 4.8 | 11.3 | 0.00 | 0.15 | 0.05 | 93 | 1015.0 |
| 20260902012507 | 11 | 252 | 6.4 | 11.3 | 0.00 | 0.15 | 0.05 | 93 | 1015.0 |
| 20260902012007 | 11 | 254 | 4.8 | 11.3 | 0.00 | 0.15 | 0.05 | 92 | 1015.0 |
| 20260902011519 | 12 | 259 | 6.4 | 9.7 | 0.00 | 0.15 | 0.05 | 92 | 1015.0 |
| 20260902011007 | 12 | 263 | 4.8 | 9.7 | 0.00 | 0.15 | 0.05 | 92 | 1015.1 |
| 20260902010508 | 12 | 254 | 6.4 | 12.9 | 0.00 | 0.15 | 0.05 | 92 | 1015.1 |
| 20260902010022 | 12 | 248 | 6.4 | 14.5 | 0.00 | 0.15 | 0.05 | 92 | 1015.1 |
| 20260902005510 | 12 | 252 | 8.0 | 14.5 | 0.00 | 0.15 | 0.05 | 92 | 1015.0 |
| 20260902005018 | 12 | 276 | 8.0 | 14.5 | 0.00 | 0.15 | 0.05 | 92 | 1015.1 |
| 20260902004528 | 12 | 255 | 6.4 | 12.9 | 0.00 | 0.15 | 0.05 | 92 | 1015.0 |
| 20260902004016 | 12 | 248 | 6.4 | 12.9 | 0.00 | 0.15 | 0.05 | 92 | 1015.0 |
| 20260902003508 | 12 | 258 | 6.4 | 12.9 | 0.00 | 0.15 | 0.05 | 92 | 1015.0 |
| 20260902003008 | 12 | 257 | 6.4 | 12.9 | 0.00 | 0.15 | 0.05 | 92 | 1015.1 |
| 20260902002509 | 12 | 290 | 6.4 | 14.5 | 0.00 | 0.15 | 0.05 | 92 | 1015.1 |
| 20260902002010 | 12 | 256 | 4.8 | 14.5 | 0.00 | 0.15 | 0.05 | 92 | 1015.0 |
| 20260902001516 | 12 | 261 | 4.8 | 12.9 | 0.00 | 0.15 | 0.05 | 92 | 1015.0 |
| 20260902001009 | 13 | 275 | 6.4 | 17.7 | 0.00 | 0.15 | 0.05 | 92 | 1015.0 |
| 20260902000512 | 13 | 238 | 8.0 | 17.7 | 0.00 | 0.15 | 0.05 | 93 | 1015.0 |
| 20260902000023 | 13 | 259 | 8.0 | 14.5 | 0.00 | 0.15 | 0.05 | 93 | 1015.0 |
| 20260901235515 | 13 | 260 | 8.0 | 16.1 | 0.00 | 0.15 | 0.05 | 93 | 1015.0 |
| 20260901235012 | 13 | 261 | 6.4 | 16.1 | 0.00 | 0.15 | 0.05 | 93 | 1015.2 |
| 20260901234527 | 13 | 257 | 9.7 | 17.7 | 0.00 | 0.15 | 0.05 | 93 | 1015.1 |
| 20260901234016 | 13 | 255 | 9.7 | 17.7 | 0.03 | 0.15 | 0.05 | 93 | 1015.1 |
| 20260901233506 | 13 | 266 | 9.7 | 17.7 | 0.05 | 0.15 | 0.05 | 93 | 1015.1 |
| 20260901233013 | 13 | 257 | 11.3 | 16.1 | 0.05 | 0.15 | 0.05 | 93 | 1015.1 |
| 20260901232507 | 13 | 284 | 8.0 | 14.5 | 0.03 | 0.13 | 0.03 | 93 | 1015.2 |
| 20260901232010 | 13 | 255 | 8.0 | 14.5 | 0.03 | 0.13 | 0.03 | 93 | 1015.2 |
| 20260901231525 | 13 | 242 | 6.4 | 12.9 | 0.03 | 0.13 | 0.03 | 93 | 1015.1 |
| 20260901231011 | 12 | 252 | 6.4 | 11.3 | 0.03 | 0.13 | 0.03 | 93 | 1015.0 |
| 20260901230514 | 12 | 248 | 4.8 | 8.0 | 0.03 | 0.13 | 0.03 | 93 | 1015.0 |
| 20260901230025 | 12 | 252 | 3.2 | 6.4 | 0.03 | 0.13 | 0.03 | 93 | 1014.9 |
| 20260901225515 | 13 | 246 | 1.6 | 4.8 | 0.03 | 0.13 | 0.03 | 93 | 1014.9 |
| 20260901225015 | 13 | 268 | 1.6 | 8.0 | 0.03 | 0.13 | 0.03 | 93 | 1015.0 |
| 20260901224535 | 12 | 247 | 3.2 | 8.0 | 0.03 | 0.13 | 0.03 | 93 | 1014.9 |
| 20260901224008 | 12 | 219 | 4.8 | 8.0 | 0.00 | 0.10 | 0.00 | 93 | 1015.0 |
| 20260901223505 | 12 | 215 | 1.6 | 4.8 | 0.00 | 0.08 | 0.00 | 92 | 1014.9 |
| 20260901223013 | 12 | 240 | 1.6 | 4.8 | 0.00 | 0.08 | 0.00 | 92 | 1014.9 |
| 20260901222509 | 12 | 242 | 1.6 | 4.8 | 0.00 | 0.08 | 0.00 | 92 | 1014.9 |
| 20260901222010 | 12 | 254 | 3.2 | 8.0 | 0.00 | 0.08 | 0.00 | 92 | 1014.8 |
| 20260901221518 | 12 | 240 | 4.8 | 8.0 | 0.00 | 0.08 | 0.00 | 92 | 1014.9 |
| 20260901221018 | 12 | 258 | 4.8 | 11.3 | 0.00 | 0.08 | 0.00 | 92 | 1014.8 |
| 20260901220512 | 12 | 264 | 3.2 | 11.3 | 0.00 | 0.08 | 0.00 | 92 | 1014.8 |
| 20260901220025 | 12 | 273 | 3.2 | 8.0 | 0.00 | 0.08 | 0.00 | 92 | 1014.9 |
| 20260901215516 | 12 | 261 | 1.6 | 4.8 | 0.00 | 0.08 | 0.08 | 92 | 1014.8 |
| 20260901215016 | 12 | 268 | 1.6 | 6.4 | 0.00 | 0.08 | 0.08 | 92 | 1014.8 |
| 20260901214533 | 12 | 266 | 1.6 | 6.4 | 0.00 | 0.08 | 0.08 | 92 | 1014.9 |
| 20260901214007 | 12 | 267 | 4.8 | 6.4 | 0.00 | 0.08 | 0.08 | 91 | 1014.8 |
| 20260901213507 | 13 | 259 | 4.8 | 6.4 | 0.00 | 0.08 | 0.08 | 92 | 1014.7 |
| 20260901213021 | 13 | 263 | 3.2 | 4.8 | 0.00 | 0.08 | 0.08 | 91 | 1014.7 |
| 20260901212508 | 13 | 262 | 4.8 | 6.4 | 0.00 | 0.08 | 0.08 | 91 | 1014.7 |
| 20260901212016 | 13 | 254 | 3.2 | 6.4 | 0.00 | 0.08 | 0.08 | 91 | 1014.7 |
| 20260901211525 | 13 | 264 | 3.2 | 6.4 | 0.00 | 0.08 | 0.08 | 91 | 1014.6 |
| 20260901211013 | 13 | 273 | 3.2 | 9.7 | 0.00 | 0.08 | 0.08 | 91 | 1014.7 |
| 20260901210517 | 13 | 284 | 4.8 | 11.3 | 0.00 | 0.08 | 0.08 | 91 | 1014.6 |
| 20260901210027 | 13 | 257 | 4.8 | 11.3 | 0.00 | 0.08 | 0.08 | 91 | 1014.6 |
| 20260901205516 | 13 | 283 | 3.2 | 11.3 | 0.00 | 0.08 | 0.08 | 91 | 1014.6 |
| 20260901205018 | 13 | 272 | 3.2 | 11.3 | 0.00 | 0.08 | 0.08 | 91 | 1014.6 |
| 20260901204532 | 13 | 259 | 4.8 | 12.9 | 0.00 | 0.08 | 0.08 | 91 | 1014.6 |
| 20260901204008 | 13 | 275 | 3.2 | 12.9 | 0.00 | 0.08 | 0.08 | 91 | 1014.6 |
| 20260901203507 | 14 | 264 | 6.4 | 12.9 | 0.00 | 0.08 | 0.08 | 91 | 1014.6 |
| 20260901203019 | 14 | 267 | 4.8 | 11.3 | 0.05 | 0.08 | 0.08 | 91 | 1014.7 |
| 20260901202512 | 14 | 271 | 6.4 | 11.3 | 0.08 | 0.08 | 0.08 | 91 | 1014.6 |
| 20260901202014 | 14 | 263 | 4.8 | 11.3 | 0.08 | 0.08 | 0.08 | 91 | 1014.6 |
| 20260901201524 | 14 | 275 | 4.8 | 11.3 | 0.08 | 0.08 | 0.08 | 91 | 1014.5 |
| 20260901201016 | 15 | 271 | 4.8 | 16.1 | 0.08 | 0.08 | 0.08 | 91 | 1014.5 |
| 20260901200520 | 15 | 270 | 6.4 | 16.1 | 0.08 | 0.08 | 0.08 | 91 | 1014.4 |
| 20260901200028 | 15 | 267 | 3.2 | 6.4 | 0.08 | 0.08 | 0.08 | 91 | 1014.4 |
| 20260901195516 | 15 | 267 | 1.6 | 3.2 | 0.08 | 0.08 | 0.08 | 91 | 1014.3 |
| 20260901195021 | 15 | 268 | 1.6 | 6.4 | 0.08 | 0.08 | 0.08 | 90 | 1014.4 |
| 20260901194513 | 15 | 264 | 3.2 | 11.3 | 0.08 | 0.08 | 0.08 | 90 | 1014.3 |
| 20260901194013 | 15 | 259 | 4.8 | 11.3 | 0.08 | 0.08 | 0.08 | 90 | 1014.3 |
| 20260901193512 | 15 | 275 | 4.8 | 17.7 | 0.08 | 0.08 | 0.08 | 90 | 1014.2 |
| 20260901193024 | 16 | 295 | 8.0 | 20.9 | 0.03 | 0.03 | 0.03 | 90 | 1014.2 |
| 20260901192516 | 16 | 240 | 12.9 | 27.4 | 0.00 | 0.00 | 0.00 | 89 | 1014.2 |
| 20260901192013 | 15 | 240 | 16.1 | 27.4 | 0.00 | 0.00 | 0.00 | 90 | 1013.9 |
| 20260901191527 | 15 | 274 | 6.4 | 12.9 | 0.00 | 0.00 | 0.00 | 89 | 1013.9 |
| 20260901191014 | 15 | 259 | 4.8 | 12.9 | 0.00 | 0.00 | 0.00 | 89 | 1013.8 |
| 20260901190515 | 15 | 258 | 6.4 | 12.9 | 0.00 | 0.00 | 0.00 | 89 | 1013.8 |
| 20260901190037 | 15 | 247 | 8.0 | 12.9 | 0.00 | 0.00 | 0.00 | 88 | 1013.7 |
| 20260901185520 | 15 | 263 | 6.4 | 12.9 | 0.00 | 0.00 | 0.00 | 88 | 1013.7 |
| 20260901185019 | 15 | 247 | 4.8 | 12.9 | 0.00 | 0.00 | 0.00 | 88 | 1013.7 |
| 20260901184514 | 15 | 253 | 6.4 | 11.3 | 0.00 | 0.00 | 0.00 | 89 | 1013.6 |
| 20260901184012 | 15 | 257 | 6.4 | 12.9 | 0.00 | 0.00 | 0.00 | 89 | 1013.7 |
| 20260901183515 | 15 | 256 | 4.8 | 12.9 | 0.00 | 0.00 | 0.00 | 89 | 1013.6 |
| 20260901183039 | 15 | 264 | 6.4 | 12.9 | 0.00 | 0.00 | 0.00 | 88 | 1013.5 |
| 20260901182512 | 15 | 229 | 3.2 | 6.4 | 0.00 | 0.00 | 0.00 | 88 | 1013.5 |
| 20260901182014 | 15 | 252 | 4.8 | 6.4 | 0.00 | 0.00 | 0.00 | 87 | 1013.5 |
| 20260901181530 | 15 | 250 | 3.2 | 4.8 | 0.00 | 0.00 | 0.00 | 87 | 1013.4 |
| 20260901181014 | 16 | 250 | 1.6 | 3.2 | 0.00 | 0.00 | 0.00 | 86 | 1013.4 |
| 20260901180519 | 16 | 246 | 1.6 | 4.8 | 0.00 | 0.00 | 0.00 | 86 | 1013.5 |
| 20260901180031 | 16 | 246 | 1.6 | 6.4 | 0.00 | 0.00 | 0.00 | 85 | 1013.4 |
| 20260901175518 | 16 | 254 | 3.2 | 11.3 | 0.00 | 0.00 | 0.00 | 85 | 1013.3 |
| 20260901175009 | 16 | 258 | 4.8 | 11.3 | 0.00 | 0.00 | 0.00 | 84 | 1013.3 |
| 20260901174519 | 16 | 240 | 6.4 | 11.3 | 0.00 | 0.00 | 0.00 | 84 | 1013.2 |
| 20260901174011 | 16 | 261 | 4.8 | 11.3 | 0.00 | 0.00 | 0.00 | 84 | 1013.2 |
| 20260901173515 | 16 | 254 | 4.8 | 11.3 | 0.00 | 0.00 | 0.00 | 84 | 1013.1 |
| 20260901173027 | 17 | 261 | 4.8 | 14.5 | 0.00 | 0.00 | 0.00 | 83 | 1013.1 |
| 20260901172516 | 17 | 251 | 8.0 | 19.3 | 0.00 | 0.00 | 0.00 | 82 | 1013.1 |
| 20260901172016 | 17 | 244 | 8.0 | 19.3 | 0.00 | 0.00 | 0.00 | 84 | 1013.1 |
| 20260901171545 | 17 | 244 | 8.0 | 14.5 | 0.00 | 0.00 | 0.00 | 84 | 1013.1 |
| 20260901171020 | 17 | 260 | 9.7 | 16.1 | 0.00 | 0.00 | 0.00 | 84 | 1013.0 |
| 20260901170518 | 17 | 233 | 9.7 | 19.3 | 0.00 | 0.00 | 0.00 | 84 | 1012.9 |
| 20260901170047 | 17 | 254 | 11.3 | 19.3 | 0.00 | 0.00 | 0.00 | 84 | 1012.9 |
| 20260901165516 | 17 | 213 | 4.8 | 8.0 | 0.00 | 0.00 | 0.00 | 85 | 1012.9 |
| 20260901165010 | 17 | 250 | 4.8 | 11.3 | 0.00 | 0.00 | 0.00 | 85 | 1012.9 |
| 20260901164523 | 17 | 247 | 4.8 | 11.3 | 0.00 | 0.00 | 0.00 | 84 | 1012.9 |
| 20260901164015 | 17 | 233 | 4.8 | 11.3 | 0.00 | 0.00 | 0.00 | 84 | 1012.9 |
| 20260901163513 | 17 | 239 | 8.0 | 11.3 | 0.00 | 0.00 | 0.00 | 84 | 1012.9 |
| 20260901163031 | 17 | 255 | 6.4 | 12.9 | 0.00 | 0.00 | 0.00 | 84 | 1012.9 |
| 20260901162516 | 17 | 239 | 6.4 | 14.5 | 0.00 | 0.00 | 0.00 | 84 | 1012.8 |
| 20260901162020 | 17 | 252 | 6.4 | 16.1 | 0.00 | 0.00 | 0.00 | 85 | 1012.8 |
| 20260901161531 | 17 | 236 | 11.3 | 16.1 | 0.00 | 0.00 | 0.00 | 84 | 1012.8 |
| 20260901161019 | 17 | 254 | 8.0 | 14.5 | 0.00 | 0.00 | 0.00 | 83 | 1012.8 |
| 20260901160519 | 17 | 258 | 6.4 | 20.9 | 0.00 | 0.00 | 0.00 | 82 | 1012.8 |
| 20260901160037 | 17 | 249 | 9.7 | 20.9 | 0.00 | 0.00 | 0.00 | 80 | 1012.8 |
| 20260901155515 | 18 | 273 | 12.9 | 20.9 | 0.00 | 0.00 | 0.00 | 78 | 1012.8 |
| 20260901155012 | 18 | 300 | 11.3 | 20.9 | 0.00 | 0.00 | 0.00 | 77 | 1012.7 |
| 20260901154524 | 18 | 261 | 14.5 | 24.1 | 0.00 | 0.00 | 0.00 | 76 | 1012.6 |
| 20260901154016 | 18 | 235 | 19.3 | 24.1 | 0.00 | 0.00 | 0.00 | 74 | 1012.6 |
| 20260901153517 | 19 | 260 | 11.3 | 22.5 | 0.00 | 0.00 | 0.00 | 74 | 1012.6 |
| 20260901153030 | 19 | 250 | 9.7 | 22.5 | 0.00 | 0.00 | 0.00 | 74 | 1012.5 |
| 20260901152518 | 20 | 267 | 6.4 | 17.7 | 0.00 | 0.00 | 0.00 | 74 | 1012.5 |
| 20260901152018 | 20 | 298 | 4.8 | 16.1 | 0.00 | 0.00 | 0.00 | 72 | 1012.4 |
| 20260901151531 | 20 | 286 | 6.4 | 16.1 | 0.00 | 0.00 | 0.00 | 73 | 1012.5 |
| 20260901151018 | 20 | 251 | 4.8 | 20.9 | 0.00 | 0.00 | 0.00 | 72 | 1012.4 |
| 20260901150519 | 20 | 279 | 12.9 | 19.3 | 0.00 | 0.00 | 0.00 | 71 | 1012.3 |
| 20260901150038 | 20 | 270 | 12.9 | 19.3 | 0.00 | 0.00 | 0.00 | 70 | 1012.3 |
| 20260901145511 | 20 | 253 | 9.7 | 20.9 | 0.00 | 0.00 | 0.00 | 72 | 1012.4 |
| 20260901145013 | 20 | 230 | 11.3 | 20.9 | 0.00 | 0.00 | 0.00 | 72 | 1012.4 |
| 20260901144526 | 20 | 252 | 9.7 | 20.9 | 0.00 | 0.00 | 0.00 | 68 | 1012.3 |